Regional Weather Roundup
Issued by NWS

Home | Current Version | Previous Version | Text Only | Print | Product List | Glossary On
Versions: 1 2 3 4 5 6 7 8 9 10 11 12 13 14 15 16 17 18 19 20 21 22 23 24 25 26 27 28 29 30 31 32 33 34 35 36 37 38 39 40 41 42 43 44 45 46 47 48 49 50
000
ASUS43 KDTX 282310
RWRMI
MICHIGAN HOURLY REGIONAL WEATHER ROUNDUP
NATIONAL WEATHER SERVICE DETROIT/PONTIAC MI
700 PM EDT WED JUN 28 2017

NOTE: "FAIR" INDICATES FEW OR NO CLOUDS BELOW 12,000 FEET WITH NO
SIGNIFICANT WEATHER AND/OR OBSTRUCTION TO VISIBILITY.

MIZ047>049-052>055-059>063-066>070-074>076-081>083-290000-
SOUTHEAST LOWER MICHIGAN

CITY           SKY/WX    TMP DP  RH WIND       PRES   REMARKS
ADRIAN         CLOUDY    76  50  40 S13       29.96F
ALMA           CLOUDY    70  55  57 S10       29.91F
ANN ARBOR      PTSUNNY   73  51  46 S12       29.96R
BAD AXE        RAIN      67  53  61 S7        29.95S
CARO           LGT RAIN  69  56  62 S5        29.94R
DETROIT CITY   CLOUDY    74  49  41 S14       29.96R
DETROIT        CLOUDY    75  52  44 S10       29.96R
FLINT          CLOUDY    72  52  49 SW7       29.95R
GROSSE ILE     CLOUDY    72  60  67 S10       29.95F
HILLSDALE      CLOUDY    70  50  49 S5        29.96S
HOWELL         CLOUDY    73  46  38 S9        29.96S

CITY           SKY/WX    TMP DP  RH WIND       PRES   REMARKS
JACKSON        LGT RAIN  69  54  58 S13       29.96S
LAMBERTVILLE   MOSUNNY   76  49  39 S8        29.95F
LANSING        CLOUDY    74  49  41 SW18G26   29.94F
LAPEER         LGT RAIN  73  51  46 S6        29.96R
MASON          LGT RAIN  71  54  56 S5        29.95R
MONROE         CLOUDY    75  51  42 S8G17     29.95S
MT. CLEMENS    CLOUDY    73  53  50 S13       29.95R
PONTIAC        CLOUDY    74  50  42 S10       29.94S
PORT HOPE        N/A     70  52  52 VRB5      29.93S
PORT HURON     LGT RAIN  70  48  46 S7        29.97R
TRI CITIES     LGT RAIN  71  59  65 S8        29.93S
MIDLAND        LGT RAIN  70  57  62 S5        29.90F
TROY           CLOUDY    76  44  31 S12       29.97S
SAGINAW HB     CLOUDY    70  52  52 S7        29.93S
$$
MIZ043>046-050>051-056>058-064>065-071>073-077>080-290000-
SOUTHWEST LOWER MICHIGAN

CITY           SKY/WX    TMP DP  RH WIND       PRES   REMARKS
BATTLE CREEK   PTSUNNY   74  54  49 S13       29.92F
BENTON HARBOR  CLOUDY    76  55  48 S12G18    29.87S
BIG RAPIDS     CLOUDY    67  56  66 S7        29.86F
COLDWATER      CLOUDY    74  48  40 S6        29.94F
FREMONT        RAIN      67  57  71 S8        29.87R
HOLLAND        LGT RAIN  69  60  73 S12       29.85F
GRAND RAPIDS   CLOUDY    68  60  75 SE10      29.88F
IONIA          CLOUDY    73  52  48 S16G26    29.90F
KALAMAZOO      CLOUDY    75  51  43 S14       29.91F
LUDINGTON      LGT RAIN  64  61  89 S17G23    29.82R
MARSHALL       CLOUDY    71  54  55 SE6       29.93S
MOUNT PLEASANT DRIZZLE   70  55  58 S6        29.89F
MUSKEGON       LGT RAIN  68  61  78 SE9       29.85F
SOUTH HAVEN    CLOUDY    74  57  54 S10       29.87F
$$
MIZ016>042-290000-
NORTHERN LOWER MICHIGAN

CITY           SKY/WX    TMP DP  RH WIND       PRES   REMARKS
ALPENA         LGT RAIN  63  61  93 S5        29.90F
BEAVER ISLAND  RAIN      61  61 100 S8G17     29.80F
BELLAIRE       HVY RAIN  63  60  90 S8        29.83F
CADILLAC       RAIN      63  60  90 S10G18    29.84F
CHARLEVOIX     LGT RAIN  63  63 100 SE9       29.84F
FRANKFORT      CLOUDY    64  59  83 S10G20    29.78F
GAYLORD        LGT RAIN  62  58  86 S10       29.87F FOG
GRAYLING       RAIN      62  60  93 SE5       29.89S
HARBOR SPRINGS RAIN      62  62  98 SE5       29.83F
HOUGHTON LAKE  LGT RAIN  63  59  87 S10G17    29.88F
MANISTEE       LGT RAIN  64  61  90 S10G16    29.81S
OSCODA         LGT RAIN  65  57  73 S7G20     29.90F
PELLSTON       LGT RAIN  63  59  87 SE7       29.84F
ROGERS CITY    RAIN      62  59  90 S5        29.89F
TRAVERSE CITY  LGT RAIN  64  60  87 S6        29.80F FOG
$$
MIZ007>008-015-290000-
EASTERN UPPER MICHIGAN

CITY           SKY/WX    TMP DP  RH WIND       PRES   REMARKS
KINROSS        LGT RAIN  61  60  97 S8        29.85F
MACKINAC ISLAN LGT RAIN  61  61 100 S3        29.85F
NEWBERRY       CLOUDY    59  58  97 S12       29.81F FOG
S. S. MARIE    LGT RAIN  65  59  81 SE10      29.85F
MUNISING         N/A     62  61  96 S9        29.72F
$$
MIZ004>006-011>014-085-290000-
CENTRAL UPPER MICHIGAN

CITY           SKY/WX    TMP DP  RH WIND       PRES   REMARKS
MANISTIQUE     LGT RAIN  58  55  89 S12G17    29.78F
ESCANABA       CLOUDY    61  60  97 S9        29.72F FOG
MENOMINEE      CLOUDY    62  60  93 S13       29.70F FOG
SAWYER-GWINN   CLOUDY    63  59  88 S15       29.72F
$$
MIZ001>003-009>011-084-290000-
WESTERN UPPER MICHIGAN

CITY           SKY/WX    TMP DP  RH WIND       PRES   REMARKS
IRON MOUNTAIN  LGT RAIN  63  60  90 SE14      29.66F FOG
HOUGHTON       LGT RAIN  63  60  90 SE8       29.66F FOG
COPPER HARBOR    N/A     64  56  75 VRB5      29.66F
IRONWOOD       CLOUDY    64  61  90 VRB3      29.59F
$$

ABBREVIATIONS USED IN REMARKS
   TC - TEMPERATURE IN CELSIUS
  WCI - WIND CHILL INDEX
   HX - HEAT INDEX
  VSB - VISIBILITY





USA.gov is the U.S. government's official web portal to all federal, state and local government web resources and services.